,,PA_Meas_PMT16A,,PR_Meas_QMR101_102,,RH_Meas_QMH101,,SR_Meas_QMS101,,TA_Meas_QMH101,,GenWind,,GenWind,
time,status,PA,status,PR,status,RH,status,SR,status,TA,status,DirAvg,status,SpdAvg,
2016-08-24, 17:20:04,VALID,917.417,VALID,0,INVALID,114.603,VALID,141.178,VALID,19.8798,VALID,254,VALID,1.13516,
2016-08-24, 17:21:04,VALID,917.453,VALID,0.2,INVALID,114.618,VALID,179.212,VALID,19.8993,VALID,207,VALID,0.239063,
2016-08-24, 17:22:04,VALID,917.43,VALID,0,INVALID,114.527,VALID,163.74,VALID,19.9773,VALID,127,VALID,0.494141,
2016-08-24, 17:23:04,VALID,917.424,VALID,0,INVALID,114.336,VALID,127.103,VALID,20.0749,VALID,92,VALID,0,
2016-08-24, 17:25:04,VALID,917.418,VALID,0,INVALID,114.374,VALID,104.11,VALID,20.1334,VALID,316,VALID,0.903906,
2016-08-24, 17:26:04,VALID,917.462,VALID,0,INVALID,114.519,VALID,148.484,VALID,20.0358,VALID,250,VALID,0.563672,
2016-08-24, 17:27:04,VALID,917.45,VALID,0,INVALID,114.511,VALID,173.195,VALID,20.0749,VALID,138,VALID,0.201562,
2016-08-24, 17:28:04,VALID,917.444,VALID,0,INVALID,114.466,VALID,156.327,VALID,20.0944,VALID,188,VALID,0,
2016-08-24, 17:29:04,VALID,917.429,VALID,0,INVALID,114.374,VALID,184.476,VALID,20.1318,VALID,123,VALID,0.133594,
2016-08-24, 17:30:04,VALID,917.447,VALID,0,INVALID,114.488,VALID,171.369,VALID,20.1123,VALID,222,VALID,1.06172,
2016-08-24, 17:31:04,VALID,917.456,VALID,0,INVALID,114.519,VALID,140.855,VALID,20.0944,VALID,59,VALID,0.728125,
2016-08-24, 17:32:04,VALID,917.493,VALID,0,INVALID,114.588,VALID,101.747,VALID,20.1139,VALID,185,VALID,0.433203,
2016-08-24, 17:33:04,VALID,917.485,VALID,0,INVALID,114.839,VALID,91.9696,VALID,19.9773,VALID,241,VALID,2.26992,
2016-08-24, 17:37:04,VALID,917.486,VALID,0,INVALID,114.915,VALID,99.8128,VALID,19.9173,VALID,148,VALID,1.08125,
2016-08-24, 17:38:04,VALID,917.526,VALID,0,INVALID,114.923,VALID,92.0771,VALID,19.8783,VALID,107,VALID,1.45,
2016-08-24, 17:39:04,VALID,917.425,VALID,0,INVALID,114.976,VALID,98.3087,VALID,19.8798,VALID,23,VALID,0.966797,
2016-08-24, 17:41:04,VALID,917.459,VALID,0,INVALID,115.258,VALID,120.871,VALID,19.7433,VALID,274,VALID,3.53594,
2016-08-24, 17:42:04,VALID,917.412,VALID,0,INVALID,115.281,VALID,106.904,VALID,19.6833,VALID,286,VALID,1.82227,
2016-08-24, 17:44:04,VALID,917.449,VALID,0.2,INVALID,115.083,VALID,129.896,VALID,19.7223,VALID,204,VALID,0.894531,
2016-08-24, 17:45:04,VALID,917.365,VALID,0,INVALID,115.045,VALID,121.301,VALID,19.7418,VALID,153,VALID,1.08828,
2016-08-24, 17:46:04,VALID,917.417,VALID,0,INVALID,114.953,VALID,87.3497,VALID,19.8003,VALID,210,VALID,0.376172,
2016-08-24, 17:48:04,VALID,917.392,VALID,0,INVALID,114.931,VALID,89.9282,VALID,19.8003,VALID,96,VALID,0,
2016-08-24, 17:49:04,VALID,917.359,VALID,0,INVALID,114.893,VALID,87.9943,VALID,19.8393,VALID,199,VALID,0.435547,
2016-08-24, 17:55:04,VALID,917.507,VALID,0,INVALID,115.388,VALID,131.83,VALID,19.5663,VALID,256,VALID,1.25625,
2016-08-24, 17:56:04,VALID,917.452,VALID,0.2,INVALID,115.35,VALID,155.79,VALID,19.5873,VALID,186,VALID,0,
2016-08-24, 17:57:04,VALID,917.453,VALID,0,INVALID,115.228,VALID,104.755,VALID,19.6053,VALID,98,VALID,0,
2016-08-24, 17:59:04,VALID,917.508,VALID,0,INVALID,115.159,VALID,109.805,VALID,19.6638,VALID,206,VALID,0,
2016-08-24, 18:00:04,VALID,917.521,VALID,0,INVALID,115.129,VALID,128.392,VALID,19.6833,VALID,267,VALID,0.394531,
2016-08-24, 18:01:04,VALID,917.531,VALID,0,INVALID,115.152,VALID,128.822,VALID,19.6638,VALID,261,VALID,0.748828,
2016-08-24, 18:02:04,VALID,917.531,VALID,0,INVALID,115.274,VALID,115.822,VALID,19.6443,VALID,161,VALID,0.0257812,
2016-08-24, 18:03:04,VALID,917.507,VALID,0,INVALID,115.281,VALID,110.45,VALID,19.6458,VALID,190,VALID,0,
2016-08-24, 18:04:04,VALID,917.531,VALID,0,INVALID,115.228,VALID,116.036,VALID,19.7238,VALID,293,VALID,0,
2016-08-24, 18:05:04,VALID,917.491,VALID,0,INVALID,115.251,VALID,114.962,VALID,19.6833,VALID,302,VALID,0,
2016-08-24, 18:06:04,VALID,917.477,VALID,0,INVALID,115.35,VALID,107.011,VALID,19.6833,VALID,343,VALID,0.149219,
2016-08-24, 18:09:04,VALID,917.528,VALID,0,INVALID,115.884,VALID,85.5232,VALID,19.5483,VALID,249,VALID,0.790625,
2016-08-24, 18:10:04,VALID,917.509,VALID,0,INVALID,115.891,VALID,86.8125,VALID,19.5273,VALID,313,VALID,0.707031,
2016-08-24, 18:19:04,VALID,917.463,VALID,0,INVALID,116.067,VALID,88.7464,VALID,19.5663,VALID,334,VALID,0,
2016-08-24, 18:20:04,VALID,917.46,VALID,0,INVALID,116.219,VALID,89.2836,VALID,19.5678,VALID,231,VALID,0.848828,
2016-08-24, 18:21:04,VALID,917.42,VALID,0,INVALID,116.387,VALID,95.7301,VALID,19.4688,VALID,282,VALID,1.05469,
2016-08-24, 18:22:04,VALID,917.379,VALID,0,INVALID,116.448,VALID,128.607,VALID,19.4688,VALID,247,VALID,0,
2016-08-24, 18:23:04,VALID,917.375,VALID,0,INVALID,116.295,VALID,145.368,VALID,19.5483,VALID,247,VALID,0,
2016-08-24, 18:24:04,VALID,917.306,VALID,0,INVALID,116.417,VALID,156.542,VALID,19.5078,VALID,26,VALID,0,
2016-08-24, 18:25:04,VALID,917.313,VALID,0,INVALID,116.318,VALID,162.558,VALID,19.5468,VALID,28,VALID,0,
2016-08-24, 18:26:04,VALID,917.198,VALID,0,INVALID,116.234,VALID,207.254,VALID,19.6443,VALID,21,VALID,2.08945,
2016-08-24, 18:27:04,VALID,917.217,VALID,0,INVALID,116.051,VALID,192.749,VALID,19.7418,VALID,63,VALID,0.229297,
2016-08-24, 18:28:04,VALID,917.202,VALID,0,INVALID,116.021,VALID,135.913,VALID,19.8018,VALID,141,VALID,0,
2016-08-24, 18:29:04,VALID,917.265,VALID,0,INVALID,116.387,VALID,115.392,VALID,19.6848,VALID,267,VALID,0,
2016-08-24, 18:30:04,VALID,917.201,VALID,0.2,INVALID,116.249,VALID,219.717,VALID,19.7613,VALID,279,VALID,0,
2016-08-24, 18:31:04,VALID,917.139,VALID,0,INVALID,116.509,VALID,192.32,VALID,19.7028,VALID,293,VALID,1.13867,
2016-08-24, 18:32:04,VALID,917.119,VALID,0,INVALID,116.631,VALID,149.773,VALID,19.7028,VALID,326,VALID,1.1957,
2016-08-24, 18:33:04,VALID,917.143,VALID,0,INVALID,116.585,VALID,174.699,VALID,19.7628,VALID,14,VALID,1.13867,
2016-08-24, 18:34:04,VALID,917.102,VALID,0,INVALID,116.608,VALID,201.13,VALID,19.7808,VALID,232,VALID,0.617969,
2016-08-24, 18:35:04,VALID,917.104,VALID,0,INVALID,116.623,VALID,195.65,VALID,19.8408,VALID,13,VALID,1.71563,
2016-08-24, 18:36:04,VALID,917.102,VALID,0,INVALID,116.501,VALID,174.055,VALID,19.8783,VALID,264,VALID,0,
2016-08-24, 18:37:04,VALID,917.082,VALID,0,INVALID,116.593,VALID,168.79,VALID,19.8588,VALID,221,VALID,0.00429688,
2016-08-24, 18:38:04,VALID,917.045,VALID,0,INVALID,116.661,VALID,172.765,VALID,19.8783,VALID,19,VALID,0,
2016-08-24, 18:39:04,VALID,917.05,VALID,0,INVALID,116.722,VALID,179.212,VALID,19.8978,VALID,5,VALID,0,
2016-08-24, 18:40:04,VALID,917,VALID,0,INVALID,116.631,VALID,181.683,VALID,19.9563,VALID,42,VALID,0,
2016-08-24, 18:41:04,VALID,916.982,VALID,0,INVALID,116.867,VALID,173.088,VALID,19.9173,VALID,298,VALID,0,
2016-08-24, 18:42:04,VALID,916.974,VALID,0,INVALID,116.958,VALID,204.031,VALID,19.8978,VALID,301,VALID,0,
2016-08-24, 18:43:04,VALID,916.983,VALID,0,INVALID,116.943,VALID,217.031,VALID,19.9563,VALID,183,VALID,0,
2016-08-24, 18:44:04,VALID,916.929,VALID,0,INVALID,116.897,VALID,193.609,VALID,20.0553,VALID,188,VALID,0,
2016-08-24, 18:45:04,VALID,916.89,VALID,0,INVALID,117.019,VALID,189.849,VALID,20.0343,VALID,94,VALID,0,
2016-08-24, 18:46:04,VALID,916.905,VALID,0,INVALID,116.997,VALID,179.212,VALID,20.1123,VALID,93,VALID,0.744922,
2016-08-24, 18:47:04,VALID,916.878,VALID,0,INVALID,117.141,VALID,242.71,VALID,20.0733,VALID,206,VALID,0,
2016-08-24, 18:48:04,VALID,916.853,VALID,0,INVALID,117.195,VALID,309.538,VALID,20.1123,VALID,196,VALID,0,
2016-08-24, 18:49:04,VALID,916.738,VALID,0,INVALID,117.34,VALID,319.423,VALID,20.0928,VALID,344,VALID,1.16133,
2016-08-24, 18:50:04,VALID,916.818,VALID,0,INVALID,117.134,VALID,226.808,VALID,20.2083,VALID,333,VALID,0.852734,
2016-08-24, 18:51:04,VALID,916.778,VALID,0,INVALID,117.233,VALID,176.633,VALID,20.2489,VALID,334,VALID,0.544141,
2016-08-24, 18:52:04,VALID,916.744,VALID,0,INVALID,117.355,VALID,172.55,VALID,20.2098,VALID,232,VALID,1.00156,
2016-08-24, 18:53:04,VALID,916.782,VALID,0,INVALID,117.484,VALID,190.815,VALID,20.1318,VALID,225,VALID,0.682813,
2016-08-24, 18:54:04,VALID,916.717,VALID,0,INVALID,117.301,VALID,171.154,VALID,20.2489,VALID,50,VALID,0.4125,
2016-08-24, 18:55:04,VALID,916.695,VALID,0,INVALID,117.584,VALID,111.094,VALID,20.1123,VALID,257,VALID,1.66992,
2016-08-24, 18:56:04,VALID,916.73,VALID,0.2,INVALID,117.683,VALID,101.639,VALID,20.0343,VALID,6,VALID,0.601953,
2016-08-24, 18:57:04,VALID,916.68,VALID,0,INVALID,117.652,VALID,99.3831,VALID,20.0523,VALID,88,VALID,0,
2016-08-24, 18:58:04,VALID,916.649,VALID,0,INVALID,117.584,VALID,143.971,VALID,20.0913,VALID,180,VALID,0.908984,
2016-08-24, 18:59:04,VALID,916.583,VALID,0,INVALID,117.576,VALID,204.246,VALID,20.0928,VALID,206,VALID,0.0417969,
2016-08-24, 19:00:04,VALID,916.585,VALID,0,INVALID,117.645,VALID,184.369,VALID,20.0148,VALID,340,VALID,1.15508,
2016-08-24, 19:01:04,VALID,916.602,VALID,0,INVALID,117.462,VALID,219.717,VALID,20.0913,VALID,20,VALID,0.914844,
2016-08-24, 19:02:04,VALID,916.596,VALID,0,INVALID,117.515,VALID,188.882,VALID,20.0928,VALID,241,VALID,0.935156,
2016-08-24, 19:03:04,VALID,916.556,VALID,0,INVALID,117.515,VALID,147.839,VALID,20.0523,VALID,33,VALID,1.63633,
2016-08-24, 19:04:04,VALID,916.589,VALID,0.2,INVALID,117.553,VALID,133.334,VALID,20.0133,VALID,42,VALID,0.35625,
2016-08-24, 19:05:04,VALID,916.582,VALID,0,INVALID,117.492,VALID,128.285,VALID,20.0538,VALID,192,VALID,0.000390625,
2016-08-24, 19:06:04,VALID,916.559,VALID,0,INVALID,117.385,VALID,141.607,VALID,20.0718,VALID,93,VALID,0.0105469,
2016-08-24, 19:07:04,VALID,916.508,VALID,0,INVALID,117.454,VALID,147.624,VALID,20.0328,VALID,262,VALID,2.75664,
2016-08-24, 19:08:04,VALID,916.542,VALID,0,INVALID,117.324,VALID,151.17,VALID,20.0733,VALID,155,VALID,0.899609,
2016-08-24, 19:09:04,VALID,916.486,VALID,0,INVALID,117.309,VALID,148.376,VALID,20.0523,VALID,38,VALID,1.16602,
2016-08-24, 19:10:04,VALID,916.489,VALID,0,INVALID,117.248,VALID,149.343,VALID,20.0928,VALID,184,VALID,1.14609,
2016-08-24, 19:11:04,VALID,916.524,VALID,0.2,INVALID,117.332,VALID,156.864,VALID,20.0148,VALID,182,VALID,0.824609,
2016-08-24, 19:12:04,VALID,916.43,VALID,0,INVALID,117.256,VALID,152.566,VALID,20.0328,VALID,299,VALID,0.346094,
2016-08-24, 19:13:04,VALID,916.417,VALID,0,INVALID,117.401,VALID,152.674,VALID,19.9353,VALID,266,VALID,1.14492,
2016-08-24, 19:14:04,VALID,916.423,VALID,0,INVALID,117.309,VALID,150.955,VALID,19.9353,VALID,339,VALID,0.672656,
2016-08-24, 19:15:04,VALID,916.394,VALID,0,INVALID,117.241,VALID,147.517,VALID,19.9353,VALID,71,VALID,1.23477,
2016-08-24, 19:16:04,VALID,916.461,VALID,0,INVALID,117.187,VALID,154.178,VALID,19.9563,VALID,299,VALID,1.05195,
2016-08-24, 19:17:04,VALID,916.46,VALID,0,INVALID,117.172,VALID,155.897,VALID,19.9173,VALID,339,VALID,1.27734,
2016-08-24, 19:18:04,VALID,916.355,VALID,0.2,INVALID,117.195,VALID,158.905,VALID,19.8963,VALID,347,VALID,3.34922,
2016-08-24, 19:19:04,VALID,916.343,VALID,0,INVALID,117.073,VALID,190.063,VALID,19.8963,VALID,229,VALID,1.30156,
2016-08-24, 19:20:04,VALID,916.36,VALID,0,INVALID,117.073,VALID,177.923,VALID,19.8783,VALID,317,VALID,2.52266,
2016-08-24, 19:21:04,VALID,916.324,VALID,0,INVALID,116.753,VALID,156.864,VALID,19.9938,VALID,192,VALID,1.56562,
2016-08-24, 19:22:04,VALID,916.337,VALID,0.2,INVALID,116.882,VALID,160.195,VALID,19.9173,VALID,121,VALID,0.602344,
2016-08-24, 19:23:04,VALID,916.348,VALID,0,INVALID,116.783,VALID,164.707,VALID,19.9563,VALID,22,VALID,1.0207,
2016-08-24, 19:24:04,VALID,916.345,VALID,0,INVALID,116.707,VALID,166.641,VALID,19.9953,VALID,334,VALID,0,
2016-08-24, 19:25:04,VALID,916.349,VALID,0.2,INVALID,116.646,VALID,185.229,VALID,20.0538,VALID,38,VALID,2.09844,
2016-08-24, 19:26:04,VALID,916.327,VALID,0,INVALID,116.486,VALID,197.692,VALID,20.0523,VALID,50,VALID,1.95898,
2016-08-24, 19:27:04,VALID,916.403,VALID,0,INVALID,116.44,VALID,200.7,VALID,20.1123,VALID,204,VALID,0.117969,
2016-08-24, 19:28:04,VALID,916.355,VALID,0,INVALID,116.562,VALID,269.462,VALID,20.0133,VALID,187,VALID,1.33867,
2016-08-24, 19:29:04,VALID,916.369,VALID,0,INVALID,116.463,VALID,262.156,VALID,20.0718,VALID,312,VALID,1.2293,
2016-08-24, 19:30:04,VALID,916.354,VALID,0,INVALID,116.493,VALID,206.394,VALID,20.0733,VALID,290,VALID,2.24141,
2016-08-24, 19:31:04,VALID,916.305,VALID,0.2,INVALID,116.532,VALID,185.873,VALID,20.0538,VALID,1,VALID,0.650391,
2016-08-24, 19:32:04,VALID,916.374,VALID,0,INVALID,116.28,VALID,157.616,VALID,20.1693,VALID,20,VALID,0,
2016-08-24, 19:33:04,VALID,916.361,VALID,0,INVALID,116.127,VALID,185.014,VALID,20.2684,VALID,42,VALID,0.347656,
2016-08-24, 19:34:04,VALID,916.286,VALID,0,INVALID,116.006,VALID,219.61,VALID,20.3448,VALID,335,VALID,0,
2016-08-24, 19:35:04,VALID,916.344,VALID,0,INVALID,116.265,VALID,156.649,VALID,20.2278,VALID,335,VALID,1.27148,
2016-08-24, 19:36:04,VALID,916.342,VALID,0,INVALID,116.303,VALID,120.227,VALID,20.2083,VALID,15,VALID,1.0918,
2016-08-24, 19:37:04,VALID,916.404,VALID,0,INVALID,116.326,VALID,117.003,VALID,20.2083,VALID,192,VALID,1.36406,
2016-08-24, 19:38:04,VALID,916.386,VALID,0,INVALID,116.501,VALID,148.054,VALID,20.1108,VALID,243,VALID,1.65039,
2016-08-24, 19:39:04,VALID,916.353,VALID,0,INVALID,116.371,VALID,176.526,VALID,20.1693,VALID,91,VALID,1.17461,
2016-08-24, 19:40:04,VALID,916.266,VALID,0,INVALID,116.341,VALID,162.344,VALID,20.1498,VALID,20,VALID,2.89687,
2016-08-24, 19:41:04,VALID,916.2,VALID,0,INVALID,116.249,VALID,194.254,VALID,20.1888,VALID,314,VALID,0.965234,
2016-08-24, 19:42:04,VALID,916.207,VALID,0,INVALID,116.509,VALID,182.972,VALID,20.0718,VALID,24,VALID,2.35742,
2016-08-24, 19:43:04,VALID,916.11,VALID,0,INVALID,116.44,VALID,232.932,VALID,20.1108,VALID,207,VALID,1.6543,
2016-08-24, 19:44:04,VALID,916.064,VALID,0,INVALID,116.387,VALID,216.172,VALID,20.1303,VALID,42,VALID,1.50078,
2016-08-24, 19:45:04,VALID,916.009,VALID,0,INVALID,116.349,VALID,204.353,VALID,20.1498,VALID,353,VALID,2.70977,
2016-08-24, 19:46:04,VALID,915.966,VALID,0,INVALID,116.448,VALID,206.072,VALID,20.1498,VALID,7,VALID,3.32266,
2016-08-24, 19:47:04,VALID,915.85,VALID,0,INVALID,116.615,VALID,215.097,VALID,20.0913,VALID,213,VALID,1.12969,
2016-08-24, 19:48:04,VALID,915.837,VALID,0.2,INVALID,116.493,VALID,226.701,VALID,20.1693,VALID,354,VALID,2.58125,
2016-08-24, 19:49:04,VALID,915.658,VALID,0,INVALID,116.806,VALID,212.519,VALID,20.1318,VALID,10,VALID,3.33164,
2016-08-24, 19:50:04,VALID,915.854,VALID,0,INVALID,117.042,VALID,230.032,VALID,20.0343,VALID,193,VALID,1.51914,
2016-08-24, 19:51:04,VALID,915.824,VALID,0,INVALID,117.202,VALID,225.197,VALID,20.0148,VALID,153,VALID,0.689453,
2016-08-24, 19:52:04,VALID,915.831,VALID,0,INVALID,117.172,VALID,215.634,VALID,20.0538,VALID,83,VALID,3.00781,
2016-08-24, 19:53:04,VALID,915.896,VALID,0,INVALID,117.172,VALID,158.905,VALID,20.0538,VALID,50,VALID,2.25469,
2016-08-24, 19:54:04,VALID,915.936,VALID,0,INVALID,117.172,VALID,119.904,VALID,20.0733,VALID,202,VALID,1.725,
2016-08-24, 19:55:04,VALID,916.021,VALID,0,INVALID,117.18,VALID,111.416,VALID,20.0538,VALID,91,VALID,0.188672,
2016-08-24, 19:56:04,VALID,916.021,VALID,0,INVALID,117.21,VALID,139.244,VALID,20.0553,VALID,145,VALID,0.108984,
2016-08-24, 19:57:04,VALID,915.999,VALID,0,INVALID,117.355,VALID,148.376,VALID,19.9563,VALID,268,VALID,1.14688,
2016-08-24, 19:58:04,VALID,915.934,VALID,0,INVALID,117.347,VALID,157.401,VALID,19.9368,VALID,3,VALID,1.36016,
2016-08-24, 19:59:04,VALID,915.916,VALID,0,INVALID,117.34,VALID,155.038,VALID,19.8978,VALID,6,VALID,2.50391,
2016-08-24, 20:00:04,VALID,915.999,VALID,0,INVALID,117.484,VALID,148.806,VALID,19.8393,VALID,108,VALID,0.5625,
2016-08-24, 20:01:04,VALID,915.966,VALID,0,INVALID,117.355,VALID,156.972,VALID,19.8393,VALID,238,VALID,0.842188,
2016-08-24, 20:02:04,VALID,915.999,VALID,0.2,INVALID,117.355,VALID,168.468,VALID,19.8198,VALID,230,VALID,0.867188,
2016-08-24, 20:03:04,VALID,916.01,VALID,0,INVALID,117.454,VALID,174.592,VALID,19.7418,VALID,256,VALID,1.40234,
2016-08-24, 20:04:04,VALID,916.007,VALID,0.2,INVALID,117.408,VALID,148.806,VALID,19.7418,VALID,247,VALID,1.44492,
2016-08-24, 20:05:04,VALID,915.926,VALID,0.2,INVALID,117.401,VALID,145.905,VALID,19.7418,VALID,227,VALID,1.81523,
2016-08-24, 20:06:04,VALID,915.982,VALID,0,INVALID,117.446,VALID,132.367,VALID,19.7223,VALID,241,VALID,2.19258,
2016-08-24, 20:07:04,VALID,915.928,VALID,0,INVALID,117.408,VALID,168.575,VALID,19.7613,VALID,256,VALID,0.0417969,
2016-08-24, 20:08:04,VALID,915.896,VALID,0.2,INVALID,117.37,VALID,165.889,VALID,19.8003,VALID,10,VALID,0.636719,
2016-08-24, 20:09:04,VALID,915.942,VALID,0,INVALID,117.355,VALID,122.805,VALID,19.8003,VALID,302,VALID,2.0125,
2016-08-24, 20:10:04,VALID,915.89,VALID,0,INVALID,117.484,VALID,124.632,VALID,19.7808,VALID,256,VALID,2.51172,
2016-08-24, 20:11:04,VALID,915.849,VALID,0,INVALID,117.477,VALID,118.508,VALID,19.8393,VALID,227,VALID,1.97734,
2016-08-24, 20:12:04,VALID,915.879,VALID,0,INVALID,117.523,VALID,101.532,VALID,19.8798,VALID,248,VALID,1.89492,
2016-08-24, 20:13:04,VALID,915.793,VALID,0,INVALID,117.561,VALID,96.3747,VALID,19.8588,VALID,230,VALID,1.00547,
2016-08-24, 20:14:04,VALID,915.815,VALID,0,INVALID,117.53,VALID,93.6887,VALID,19.8783,VALID,47,VALID,2.20742,
2016-08-24, 20:15:04,VALID,915.843,VALID,0,INVALID,117.469,VALID,88.3166,VALID,19.8978,VALID,359,VALID,1.29023,
2016-08-24, 20:16:04,VALID,915.894,VALID,0,INVALID,117.37,VALID,80.2585,VALID,19.9173,VALID,176,VALID,1.3332,
2016-08-24, 20:17:04,VALID,915.936,VALID,0,INVALID,117.431,VALID,74.5642,VALID,19.8588,VALID,242,VALID,1.37227,
2016-08-24, 20:18:04,VALID,915.863,VALID,0,INVALID,117.492,VALID,74.2418,VALID,19.8408,VALID,218,VALID,1.78945,
2016-08-24, 20:19:04,VALID,915.935,VALID,0,INVALID,117.523,VALID,76.9279,VALID,19.8198,VALID,250,VALID,0.587109,
2016-08-24, 20:20:04,VALID,915.912,VALID,0.2,INVALID,117.446,VALID,82.8371,VALID,19.8393,VALID,234,VALID,0.731641,
2016-08-24, 20:21:04,VALID,915.875,VALID,0.2,INVALID,117.324,VALID,89.4985,VALID,19.9188,VALID,55,VALID,0.991797,
2016-08-24, 20:22:04,VALID,915.87,VALID,0.2,INVALID,117.18,VALID,88.2092,VALID,19.9773,VALID,47,VALID,0,
2016-08-24, 20:23:04,VALID,915.901,VALID,0.2,INVALID,117.119,VALID,97.9863,VALID,19.9563,VALID,62,VALID,0.0617188,
2016-08-24, 20:24:04,VALID,915.915,VALID,0,INVALID,117.08,VALID,113.243,VALID,19.9368,VALID,37,VALID,0.426172,
2016-08-24, 20:25:04,VALID,915.811,VALID,0.2,INVALID,117.088,VALID,103.251,VALID,19.9173,VALID,45,VALID,1.9293,
2016-08-24, 20:26:04,VALID,915.855,VALID,0.2,INVALID,116.966,VALID,98.4161,VALID,19.9578,VALID,268,VALID,0.104687,
2016-08-24, 20:27:04,VALID,915.882,VALID,0.2,INVALID,117.157,VALID,70.5888,VALID,19.8213,VALID,296,VALID,1.19492,
2016-08-24, 20:29:04,VALID,915.878,VALID,0.2,INVALID,116.829,VALID,63.1754,VALID,19.8783,VALID,28,VALID,1.56523,
2016-08-24, 20:30:04,VALID,915.858,VALID,0.2,INVALID,116.516,VALID,76.4981,VALID,19.9758,VALID,331,VALID,0.753125,
2016-08-24, 20:31:04,VALID,915.923,VALID,0.2,INVALID,116.455,VALID,56.514,VALID,19.9953,VALID,199,VALID,0.701953,
2016-08-24, 20:32:04,VALID,915.856,VALID,0.2,INVALID,116.524,VALID,61.5638,VALID,19.9368,VALID,155,VALID,0.00859375,
2016-08-24, 20:33:04,VALID,915.918,VALID,0.2,INVALID,116.585,VALID,76.8204,VALID,19.8378,VALID,231,VALID,1.00312,
2016-08-24, 20:34:04,VALID,915.799,VALID,0,INVALID,116.562,VALID,110.664,VALID,19.8003,VALID,112,VALID,0.957812,
2016-08-24, 20:35:04,VALID,915.727,VALID,0.4,INVALID,116.417,VALID,151.922,VALID,19.8003,VALID,43,VALID,2.57305,
2016-08-24, 20:36:04,VALID,915.697,VALID,0,INVALID,116.509,VALID,128.822,VALID,19.7418,VALID,357,VALID,1.14961,
2016-08-24, 20:37:04,VALID,915.763,VALID,0.2,INVALID,116.417,VALID,127.21,VALID,19.7223,VALID,15,VALID,2.17812,
2016-08-24, 20:38:04,VALID,915.651,VALID,0,INVALID,116.539,VALID,114.855,VALID,19.6443,VALID,257,VALID,1.81484,
2016-08-24, 20:39:04,VALID,915.703,VALID,0,INVALID,116.73,VALID,78.1097,VALID,19.4868,VALID,302,VALID,1.81758,
2016-08-24, 20:40:04,VALID,915.525,VALID,0,INVALID,116.562,VALID,73.5972,VALID,19.5273,VALID,38,VALID,1.64258,
2016-08-24, 20:41:04,VALID,915.763,VALID,0,INVALID,116.539,VALID,84.8785,VALID,19.4688,VALID,313,VALID,0.608984,
2016-08-24, 20:42:04,VALID,915.775,VALID,0.2,INVALID,116.501,VALID,86.9199,VALID,19.4493,VALID,222,VALID,0.926562,
2016-08-24, 20:43:04,VALID,915.739,VALID,0,INVALID,116.493,VALID,88.2092,VALID,19.3908,VALID,48,VALID,1.66602,
2016-08-24, 20:44:04,VALID,915.668,VALID,0,INVALID,116.341,VALID,102.821,VALID,19.4298,VALID,39,VALID,3.02422,
2016-08-24, 20:45:04,VALID,915.691,VALID,0,INVALID,116.234,VALID,113.028,VALID,19.4493,VALID,225,VALID,1.78437,
2016-08-24, 20:46:04,VALID,915.721,VALID,0,INVALID,116.181,VALID,99.4905,VALID,19.4088,VALID,30,VALID,1.67148,
2016-08-24, 20:47:04,VALID,915.693,VALID,0.2,INVALID,116.105,VALID,78.5395,VALID,19.4688,VALID,18,VALID,0.687109,
2016-08-24, 20:48:04,VALID,915.681,VALID,0,INVALID,116.028,VALID,76.0683,VALID,19.4688,VALID,17,VALID,1.93672,
2016-08-24, 20:50:04,VALID,915.645,VALID,0,INVALID,116.105,VALID,62.2084,VALID,19.3713,VALID,2,VALID,1.38437,
2016-08-24, 20:52:04,VALID,915.582,VALID,0,INVALID,115.8,VALID,61.4563,VALID,19.4688,VALID,32,VALID,1.47773,
2016-08-24, 20:53:04,VALID,915.51,VALID,0,INVALID,115.952,VALID,66.3986,VALID,19.3908,VALID,298,VALID,1.8457,
2016-08-24, 20:54:04,VALID,915.535,VALID,0,INVALID,115.998,VALID,66.0763,VALID,19.3323,VALID,134,VALID,1.53633,
2016-08-24, 20:55:04,VALID,915.557,VALID,0.2,INVALID,115.884,VALID,67.473,VALID,19.3128,VALID,220,VALID,1.16797,
2016-08-24, 20:56:04,VALID,915.494,VALID,0,INVALID,115.975,VALID,73.1674,VALID,19.2348,VALID,22,VALID,1.58281,
2016-08-24, 20:57:04,VALID,915.516,VALID,0,INVALID,115.853,VALID,78.5395,VALID,19.2543,VALID,39,VALID,1.11797,
2016-08-24, 20:58:04,VALID,915.425,VALID,0.2,INVALID,115.762,VALID,96.1598,VALID,19.2738,VALID,357,VALID,2.37148,
2016-08-24, 20:59:04,VALID,915.407,VALID,0,INVALID,115.655,VALID,100.457,VALID,19.2738,VALID,24,VALID,2.88633,
2016-08-24, 21:00:04,VALID,915.442,VALID,0,INVALID,115.548,VALID,105.4,VALID,19.3128,VALID,339,VALID,1.70117,
2016-08-24, 21:01:04,VALID,915.43,VALID,0.2,INVALID,115.54,VALID,100.135,VALID,19.3323,VALID,350,VALID,1.89141,
2016-08-24, 21:02:04,VALID,915.359,VALID,0,INVALID,115.464,VALID,83.5892,VALID,19.3713,VALID,64,VALID,1.08047,
2016-08-24, 21:03:04,VALID,915.424,VALID,0.2,INVALID,115.426,VALID,95.7301,VALID,19.3713,VALID,313,VALID,1.30391,
2016-08-24, 21:04:04,VALID,915.331,VALID,0,INVALID,115.449,VALID,116.036,VALID,19.3518,VALID,40,VALID,2.36797,
2016-08-24, 21:05:04,VALID,915.399,VALID,0,INVALID,115.624,VALID,75.9609,VALID,19.2543,VALID,271,VALID,2.11016,
2016-08-24, 21:06:04,VALID,915.4,VALID,0.2,INVALID,115.548,VALID,79.399,VALID,19.2543,VALID,102,VALID,1.24141,
2016-08-24, 21:07:04,VALID,915.407,VALID,0,INVALID,115.54,VALID,88.3166,VALID,19.2738,VALID,329,VALID,2.45742,
2016-08-24, 21:08:04,VALID,915.386,VALID,0,INVALID,115.518,VALID,73.3823,VALID,19.2348,VALID,280,VALID,1.95078,
2016-08-24, 21:09:04,VALID,915.303,VALID,0.2,INVALID,115.518,VALID,84.2339,VALID,19.2153,VALID,48,VALID,2.00859,
2016-08-24, 21:10:04,VALID,915.427,VALID,0,INVALID,115.38,VALID,79.0767,VALID,19.2753,VALID,18,VALID,0.721484,
2016-08-24, 21:12:04,VALID,915.394,VALID,0,INVALID,115.396,VALID,85.3083,VALID,19.2363,VALID,56,VALID,1.2668,
2016-08-24, 21:13:04,VALID,915.376,VALID,0,INVALID,115.358,VALID,86.4901,VALID,19.2348,VALID,216,VALID,1.17656,
2016-08-24, 21:14:04,VALID,915.295,VALID,0.2,INVALID,115.388,VALID,89.8208,VALID,19.1958,VALID,11,VALID,2.11133,
2016-08-24, 21:15:04,VALID,915.346,VALID,0,INVALID,115.304,VALID,91.7547,VALID,19.1958,VALID,176,VALID,0.0195313,
2016-08-24, 21:16:04,VALID,915.326,VALID,0,INVALID,115.236,VALID,103.036,VALID,19.2153,VALID,329,VALID,0.876562,
2016-08-24, 21:17:04,VALID,915.317,VALID,0,INVALID,115.304,VALID,123.235,VALID,19.1958,VALID,25,VALID,1.07031,
2016-08-24, 21:18:04,VALID,915.241,VALID,0,INVALID,115.228,VALID,139.244,VALID,19.2153,VALID,18,VALID,2.42773,